GFSFLT2_850_dewp_111.txt.gz
Dewpoint
-0 1 3 5 7 9 9 11 11 10 10 10 7 7 8 7 8 8 1 10 6 0 -4 -1 4 7 8 8 8 8 5 -3
1 2 4 5 6 6 10 11 12 12 11 8 6 7 9 8 9 9 2 -2 -1 -1 2 8 7 5 8 9 9 7 1 -1
2 3 4 4 4 5 6 8 13 13 12 10 9 8 9 9 7 8 9 -5 -3 2 8 9 9 8 7 9 7 5 1 -2
3 5 6 7 6 6 6 7 11 13 13 12 10 9 9 9 7 5 9 -4 -2 4 9 10 10 7 9 8 6 5 2 -8
4 7 9 10 10 10 9 7 9 12 12 12 11 9 10 8 7 6 10 -2 2 8 9 8 7 6 8 5 6 3 -7 -9
6 8 10 10 11 10 8 7 8 10 12 12 12 10 10 8 7 5 9 -2 4 8 8 6 7 6 6 6 5 5 5 -1
7 9 11 11 11 10 7 8 9 8 10 12 10 11 10 9 8 2 10 -2 2 8 7 6 6 7 7 6 5 6 6 4
7 9 11 11 11 9 8 8 7 8 8 9 11 11 10 10 10 6 10 -3 -1 7 6 6 6 6 6 5 6 6 6 5
6 9 11 11 9 8 9 8 8 9 10 11 10 11 10 10 8 6 10 -5 -6 6 6 6 6 6 6 6 6 6 6 5
7 10 11 10 9 10 9 9 9 9 10 10 11 11 10 10 9 5 10 -5 -7 3 5 5 6 6 6 6 6 6 6 6
8 10 10 10 8 10 11 10 9 11 11 10 10 11 10 10 10 7 10 -4 -7 -3 2 5 6 6 6 6 6 6 6 6
9 10 10 9 8 10 10 11 10 10 10 10 10 11 10 9 8 9 10 -5 -7 -6 -1 5 5 6 6 6 6 6 6 6
9 10 10 8 7 10 10 10 11 10 11 10 9 10 10 8 9 8 9 -6 -7 -7 -3 4 6 7 7 7 7 7 7 7
10 9 9 6 7 10 10 11 11 10 11 10 9 9 9 9 8 8 9 -5 -5 -6 -4 5 6 6 7 7 7 7 7 7
9 8 8 6 9 10 10 11 11 11 10 11 10 10 9 9 8 8 9 -3 -2 -4 -4 2 5 6 6 6 6 6 6 6
8 8 7 5 9 10 10 11 10 11 11 10 11 10 9 9 10 9 10 -0 0 -1 -3 -2 1 7 7 6 5 4 4 5
8 8 4 6 9 10 10 10 11 10 10 11 11 10 10 10 9 10 10 3 1 2 1 4 6 7 7 6 5 3 3 3
8 8 3 7 9 10 9 9 9 11 11 10 10 10 10 10 10 10 9 6 2 3 3 6 9 8 8 6 5 3 4 3
9 7 3 8 11 10 9 8 8 9 10 10 11 11 11 10 10 11 10 10 5 4 4 5 8 9 8 6 3 3 4 5
9 6 3 9 10 10 9 10 9 9 9 9 9 10 10 11 10 10 10 10 9 9 7 6 8 9 8 7 5 5 6 6

GFSFLT2_850_dewp_114.txt.gz
Dewpoint
-1 1 5 6 5 8 9 10 9 8 7 7 6 7 6 6 7 6 7 9 10 11 8 7 7 3 -2 -0 3 4 3 2
1 1 5 6 6 7 9 10 11 10 8 9 8 7 6 7 6 8 7 7 10 9 4 4 -1 -0 5 7 8 7 3 0
2 2 4 5 7 6 9 12 12 12 11 10 10 9 6 6 6 6 6 8 10 6 1 -2 3 7 7 8 8 6 4 -0
2 2 4 5 6 7 7 10 12 13 12 12 11 8 7 6 8 9 6 8 9 2 1 3 8 8 9 9 7 5 4 -1
2 2 4 5 5 6 5 7 11 12 13 12 11 9 7 8 9 8 6 8 8 5 8 8 9 8 8 7 7 5 -0 -4
4 4 5 6 8 9 9 9 10 12 12 12 12 10 9 9 8 8 8 8 2 7 9 10 10 8 8 5 6 -1 -8 -9
4 4 5 7 9 10 10 10 10 12 12 12 12 12 10 9 9 8 9 6 -3 7 10 10 9 8 8 6 5 5 4 -4
5 5 6 8 9 10 11 11 10 10 11 11 12 11 11 10 10 8 8 6 -5 4 10 10 7 7 7 7 5 6 5 2
4 6 6 9 10 11 11 10 9 9 9 10 11 11 11 10 10 9 6 5 -2 5 9 7 6 7 7 6 6 6 6 4
3 6 7 9 11 11 10 9 9 8 8 8 10 11 11 10 10 9 7 7 0 6 8 6 6 6 6 6 6 6 6 5
-2 6 7 8 11 10 9 9 9 9 9 10 10 10 11 10 11 10 8 9 -0 4 8 6 6 6 6 7 6 6 6 6
-4 6 7 9 10 10 9 11 10 10 9 10 11 10 10 10 10 10 6 9 1 1 8 6 6 6 6 7 7 7 7 6
-1 5 8 10 10 9 8 11 11 11 11 9 10 10 10 11 10 10 7 9 -0 -3 7 6 6 6 7 7 7 7 6 6
2 7 8 10 9 8 7 10 11 11 11 11 10 10 10 10 10 10 6 9 3 -6 5 6 6 6 7 7 7 7 7 7
6 8 8 9 9 7 9 10 11 11 11 10 9 10 10 10 10 10 9 9 3 -7 -2 3 6 7 7 6 7 7 7 7
9 10 9 10 9 8 8 10 10 11 10 9 9 10 10 9 9 9 8 9 3 -7 -5 0 4 6 7 6 5 5 6 7
8 10 10 10 9 8 8 10 10 10 10 11 9 10 10 10 9 9 9 9 7 -6 -7 -4 3 6 6 6 6 5 4 3
9 10 10 10 9 9 8 10 10 10 11 10 11 11 10 10 9 8 7 9 9 -2 -6 -6 -1 5 5 5 6 5 3 3
9 10 10 9 8 9 8 10 10 10 10 10 11 11 11 10 9 9 9 10 9 7 -3 -4 -5 4 5 3 7 6 3 3
9 10 10 9 8 7 8 10 10 10 10 10 10 10 10 10 10 10 10 9 9 10 1 -1 -3 -1 4 7 7 5 4 4

GFSFLT2_850_dewp_120.txt.gz
Dewpoint
-3 -2 -1 2 5 8 8 8 7 6 7 8 11 11 9 6 8 4 7 9 4 6 9 9 9 11 11 10 10 10 9 8
-1 -2 -0 0 3 7 9 9 8 7 7 8 10 11 9 8 8 6 6 5 4 5 10 10 11 12 11 10 10 9 8 8
1 -2 0 2 3 5 8 9 9 9 8 9 10 9 9 11 8 7 6 5 3 2 6 9 11 11 10 10 8 8 8 7
3 1 0 3 4 5 7 10 10 10 10 9 12 12 12 12 11 8 7 6 6 8 6 6 11 11 9 6 8 9 8 7
6 4 2 3 4 6 7 10 12 12 13 12 11 13 12 12 12 8 7 7 8 9 8 8 11 10 9 9 10 9 7 7
11 5 4 4 5 7 7 10 11 12 12 12 12 12 12 12 12 8 8 9 9 9 8 7 10 8 9 10 9 8 7 7
4 5 4 5 5 7 8 9 10 12 10 12 12 12 12 11 9 7 8 8 10 9 9 10 10 10 11 10 9 8 8 6
5 -3 1 4 6 7 8 9 9 11 8 9 11 12 12 11 9 10 9 11 11 10 10 10 10 10 10 10 9 7 7 7
4 -2 -7 -2 2 7 8 8 8 9 9 9 12 12 12 11 10 10 10 10 11 10 10 9 10 10 10 10 9 8 7 7
-1 3 -6 -5 3 10 9 9 8 9 9 10 11 12 12 12 12 11 9 9 10 9 9 10 9 10 10 9 8 8 8 7
-2 -4 -6 -5 1 12 13 9 8 9 10 12 11 11 12 11 12 11 11 9 10 9 8 9 9 9 10 9 8 8 8 7
-7 -9 -7 3 8 12 13 10 9 10 10 11 11 10 10 11 11 11 10 10 10 8 8 8 9 9 9 9 8 8 9 8
-4 -2 -2 6 9 12 12 10 10 10 11 11 8 8 10 10 11 11 11 11 10 9 7 8 8 8 8 8 9 9 9 9
3 5 7 10 10 12 11 11 10 10 11 9 7 8 8 10 11 10 11 11 10 10 8 8 8 9 8 8 9 9 9 9
9 9 10 9 12 11 12 10 10 11 10 6 9 10 10 10 10 10 11 10 10 10 9 7 8 9 8 7 7 7 8 9
10 10 6 8 11 11 12 11 11 10 6 5 10 11 11 11 10 10 10 10 10 10 9 7 7 8 8 7 6 5 7 8
10 11 4 11 12 12 12 12 12 10 4 8 11 10 10 10 10 9 10 10 10 10 9 8 8 8 8 8 7 8 7 6
6 8 10 11 12 13 12 12 12 9 10 11 10 11 9 9 10 10 10 10 10 10 9 8 8 8 8 8 7 7 6 6
8 8 11 12 12 12 12 12 11 9 11 11 10 10 9 10 10 10 10 10 10 10 9 8 7 8 7 8 7 6 5 5
8 10 10 11 10 12 12 10 9 10 10 11 10 10 9 9 10 10 10 10 10 10 10 8 5 6 7 8 7 6 6 6

GFSFLT2_850_dewp_123.txt.gz
Dewpoint
-2 -3 -2 -1 -1 1 5 7 7 6 7 10 12 12 12 11 9 8 5 7 5 5 9 9 9 9 11 10 9 7 8 8
3 -2 -2 -1 -1 0 4 7 8 7 6 10 11 11 12 11 9 9 6 6 5 8 8 8 9 10 11 10 9 8 8 7
5 1 -1 -0 0 0 2 7 8 8 8 8 10 12 13 12 8 9 7 7 7 6 8 8 8 11 11 10 8 7 8 6
12 8 3 1 1 1 2 5 8 9 9 10 9 12 13 13 12 10 8 8 6 6 8 8 8 9 11 10 4 7 7 7
14 14 8 5 5 3 4 11 10 11 13 13 12 12 13 13 12 12 10 8 8 8 8 9 10 11 10 9 9 8 6 7
13 14 14 10 13 5 4 10 13 13 13 13 12 11 12 13 12 12 11 10 9 7 8 8 9 11 9 8 9 7 6 8
11 14 15 13 14 8 5 12 10 13 14 13 13 13 12 12 12 11 11 11 10 8 7 7 10 8 8 8 9 8 7 7
9 12 14 11 12 7 6 7 14 11 13 13 13 13 13 12 12 11 11 11 9 9 7 9 10 9 8 8 8 8 7 7
3 8 12 14 8 6 8 7 11 14 13 13 13 12 12 13 11 11 11 10 9 8 10 8 9 9 8 9 8 8 6 7
-2 -2 5 11 13 8 7 8 9 13 13 13 11 12 12 12 12 11 11 10 10 10 10 10 10 9 10 9 8 7 7 7
-3 -3 -0 5 11 13 12 7 10 11 13 12 9 12 12 12 12 11 12 10 10 10 10 10 8 9 9 9 8 7 7 6
0 0 0 3 7 12 13 13 12 14 13 13 13 12 12 12 12 12 12 11 11 10 10 9 9 8 9 9 7 7 7 7
4 4 3 3 6 10 12 14 13 13 14 13 13 13 12 12 12 12 12 11 11 10 10 8 8 9 8 8 7 8 8 7
7 7 7 8 7 10 12 13 13 13 13 12 11 12 12 11 11 10 10 11 10 10 10 9 8 9 9 8 8 8 8 8
9 8 8 10 10 11 13 13 12 12 13 11 10 11 11 11 10 10 11 11 11 10 10 9 8 8 8 8 8 8 9 8
10 10 10 10 11 12 12 12 12 12 13 11 11 11 9 11 10 11 11 11 11 10 10 9 8 9 8 8 7 6 8 9
10 11 11 11 12 12 12 12 12 12 12 11 11 10 10 11 11 11 11 11 10 10 10 10 8 9 8 8 6 6 6 7
8 10 11 12 12 11 12 11 12 12 12 12 11 10 11 11 11 10 10 10 10 10 10 10 6 9 8 8 7 6 7 7
8 8 10 11 11 11 12 12 12 12 12 11 11 10 10 10 10 9 10 10 10 10 10 10 6 9 8 8 8 6 7 6
8 8 8 11 10 11 12 12 12 12 12 12 12 11 9 9 8 10 8 9 10 10 10 10 8 8 8 8 8 7 6 6

GFSFLT2_850_dewp_129.txt.gz
Dewpoint
-2 -4 -3 -3 -3 -5 -4 -0 5 6 5 7 11 12 12 12 11 8 7 5 5 7 7 5 4 8 4 9 9 11 10 10
1 -3 -4 -3 -2 -3 -4 -2 3 5 6 7 9 11 12 11 11 11 8 5 6 7 5 6 7 9 6 8 9 11 11 11
5 -1 -4 -4 -3 -2 -2 -2 1 4 5 6 7 9 11 12 12 11 9 6 6 5 6 7 8 7 6 4 8 9 11 9
2 3 -1 -3 -3 -2 -1 -1 -2 2 4 5 6 7 9 10 12 12 11 7 7 6 7 7 7 7 6 6 7 8 10 9
-0 -1 2 -0 -2 -2 -2 -1 -1 -0 2 3 5 7 9 10 11 12 11 9 8 8 8 7 6 6 6 5 5 8 9 10
4 -0 -1 2 1 -1 -1 -1 -1 -0 1 2 5 6 7 9 11 11 12 10 9 9 8 7 7 6 3 4 4 9 10 9
6 5 4 4 3 0 2 1 0 0 2 2 4 5 6 8 11 11 11 11 10 9 8 7 7 7 7 4 6 9 9 8
7 7 7 8 7 4 2 6 3 3 3 4 4 6 8 10 11 12 12 11 11 10 9 8 8 8 8 7 8 9 9 8
4 9 9 9 8 10 8 8 8 5 7 7 8 6 9 12 11 11 12 11 11 11 10 9 8 8 10 7 8 9 9 7
-3 7 9 8 8 10 8 5 9 8 14 11 11 12 11 13 13 12 12 12 11 11 10 9 9 9 8 6 8 8 7 6
-2 5 7 7 8 7 3 3 4 6 13 15 14 13 13 13 13 13 13 12 12 11 11 10 9 9 9 9 8 9 8 7
3 10 10 9 8 8 10 8 7 7 8 13 14 14 13 13 13 13 13 13 12 12 11 11 10 9 9 10 8 9 7 6
-3 -3 -3 -1 6 10 9 9 9 8 9 12 13 13 13 13 13 13 13 13 12 12 11 11 9 9 10 10 9 9 7 6
0 0 1 5 6 4 5 9 9 6 8 9 12 12 13 13 13 13 13 13 12 12 12 11 10 9 9 9 9 8 7 7
-1 -0 1 1 5 8 7 6 11 11 12 12 13 12 12 13 13 13 13 12 12 11 11 10 10 10 9 8 9 9 7 7
2 4 2 7 10 8 8 8 7 9 10 10 12 12 12 12 12 12 12 12 12 11 10 10 10 9 10 9 7 7 8 7
2 1 5 9 11 10 9 9 10 8 10 12 11 11 11 11 13 12 12 12 12 11 9 11 10 10 10 9 7 8 7 7
3 7 9 9 8 9 11 11 12 12 12 12 11 11 11 11 12 12 12 11 12 10 10 11 11 11 10 10 7 8 7 7
3 2 7 9 10 9 8 11 13 12 11 11 10 10 11 11 11 11 11 11 11 11 10 10 10 10 11 10 9 8 7 7
4 3 3 9 10 11 10 10 11 11 11 10 11 10 11 11 11 11 11 11 11 11 10 10 11 11 10 10 10 8 8 7

GFSFLT2_850_dewp_132.txt.gz
Dewpoint
-6 -4 -4 -5 -7 -6 -3 1 4 6 6 8 10 10 11 11 9 7 7 5 5 5 8 6 6 8 8 8 10 10 11 9
-6 -4 -3 -3 -4 -5 -4 -1 2 5 6 6 8 10 11 11 11 8 8 5 5 8 8 5 4 7 7 9 10 9 9 9
-3 -4 -4 -3 -3 -3 -4 -2 1 3 5 6 6 9 10 11 11 11 9 5 6 7 6 5 5 7 6 8 9 9 10 10
4 2 -2 -4 -3 -2 -2 -2 -2 1 2 5 5 7 8 10 11 11 10 7 6 6 5 5 5 5 5 5 9 9 9 10
5 5 3 -3 -3 -2 -2 -1 -1 -1 1 1 4 6 8 9 11 11 11 9 7 6 5 6 6 6 7 8 7 8 8 10
6 6 5 3 -2 -2 -2 -1 -1 -1 -0 1 2 4 7 7 10 10 11 11 8 7 7 6 6 5 7 7 7 8 8 10
4 5 5 4 2 -0 -1 -1 -1 -1 1 2 2 3 5 7 8 9 11 11 10 8 8 7 6 6 7 4 7 7 8 9
5 5 6 5 3 1 2 1 0 1 2 2 3 4 5 7 8 10 11 11 11 10 9 8 7 7 7 7 8 7 8 9
5 4 5 6 7 7 7 5 4 4 4 4 5 6 6 7 8 9 10 11 11 11 10 9 9 9 8 8 8 8 9 9
-3 3 5 6 8 7 8 10 10 8 7 6 7 7 8 9 10 10 10 11 11 11 11 9 9 9 9 9 9 9 9 9
-5 -3 1 4 7 8 11 10 11 11 8 7 10 11 11 11 12 12 12 12 11 11 12 11 9 9 9 9 8 9 9 9
-3 -3 2 6 9 10 9 8 8 11 9 9 9 13 13 13 12 12 12 13 12 12 12 11 10 9 9 8 8 9 9 8
-3 1 6 8 9 9 9 8 8 8 10 9 8 11 12 13 14 12 13 12 12 10 12 11 11 10 9 9 7 9 10 8
2 3 4 6 9 9 9 8 7 6 9 10 9 9 10 12 13 12 12 12 12 12 12 12 11 11 10 10 10 10 9 8
-1 -0 2 5 6 7 7 6 7 8 10 11 11 10 11 11 12 12 12 13 12 12 12 12 11 11 10 9 10 9 9 9
4 4 3 3 6 7 9 9 8 7 7 6 8 11 10 11 11 12 12 13 13 12 12 11 11 10 10 9 9 9 9 8
2 1 -1 -3 2 10 11 10 9 8 8 8 8 9 9 11 11 12 12 12 12 12 11 12 11 9 9 9 9 8 8 8
1 -3 -5 -5 7 9 9 8 10 11 11 10 10 10 11 10 10 11 12 12 12 12 11 11 11 10 9 10 9 9 8 7
-2 -7 -5 6 7 9 10 9 8 10 12 11 11 11 12 11 11 11 11 12 11 11 11 11 11 8 10 10 9 9 8 7
-2 -2 -2 6 7 8 8 8 9 10 10 12 11 10 10 9 10 11 11 11 11 11 11 11 9 10 10 10 10 10 9 8